Regional Weather Roundup
Issued by NWS Wakefield, VA

Home | Current Version | Previous Version | Graphics & Text | Print | Product List | Glossary On
Versions: 1 2 3 4 5 6 7 8 9 10 11 12 13 14 15 16 17 18 19 20 21 22 23 24 25 26 27
000
ASUS41 KAKQ 200415
RWRAKQ

REGIONAL WEATHER ROUNDUP
NATIONAL WEATHER SERVICE WAKEFIELD VA
1100 PM EST THU JAN 19 2017

Note: "fair" indicates few or no clouds below 12,000 feet with no
significant weather and/or obstructions to visibility. * = Denotes
station may not report precipitation (e.g., rain,snow,etc.),
thunder or fog.

VAZ042-051-052>054-056-200500-
NORTHERN VIRGINIA

CITY           SKY/WX    TMP DP  RH WIND       PRES   REMARKS
WASH NATIONAL  CLOUDY    41  39  93 CALM      30.04R
DULLES         PTCLDY    32  30  92 CALM      30.01S
FORT BELVOIR   CLOUDY    33  31  94 CALM      30.02S
QUANTICO       MOCLDY    37  36  96 CALM      30.04S
FREDERICKSBRG* CLOUDY    39  38  94 CALM      30.02R
STAFFORD*      CLOUDY    34  34 100 CALM      30.06R
WARRENTON      MOCLDY    35  32  90 CALM      30.02R
CULPEPER*      CLOUDY    36  35  96 CALM      30.04R
MANASSAS*      NOT AVBL
LEESBURG*      CLOUDY    36  36 100 CALM      30.02S
WINCHESTER     PTCLDY    34  32  93 CALM      29.99S
FRONT ROYAL*   FAIR      37  36  93 CALM      29.98R
LURAY*         FAIR      39  39 100 CALM      30.00R
$$

VAZ048-049-060>072-079>083-200500-
CENTRAL AND SOUTH CENTRAL VIRGINIA

CITY           SKY/WX    TMP DP  RH WIND       PRES   REMARKS
RICHMOND       CLOUDY    41  38  89 S3        30.03R
CHESTERFIELD*  FAIR      39  25  56 CALM      30.03S
PETERSBURG*    CLOUDY    36  34  93 CALM      30.03S
HANOVER        CLOUDY    42  36  79 CALM      30.04R
TAPPAHANNOCK*  CLOUDY    38  38 100 CALM      30.03S
QUINTON*       FAIR      40  38  91 CALM      30.02S
CHARLOTTSVILLE MOCLDY    44  38  79 CALM      30.01R
GORDONSVILLE*  FAIR      39  38  96 CALM      30.02R
ORANGE*          N/A     41  39  93 CALM      30.04R
LOUISA*        CLOUDY    45  41  87 SE3       30.01R
BUMPASS*       FAIR      42  39  89 S3        30.02R
FARMVILLE*     PTCLDY    43  41  92 CALM      29.99S
CREWE*         FAIR      37  37 100 CALM      30.00F
FORT PICKETT*  FAIR      42  38  86 E3        30.00F
CHASE CITY*    FAIR      41  39  95 CALM      29.99S
CLARKSVILLE*   FAIR      41  41 100 CALM      29.99S
SOUTH HILL*    CLOUDY    38  37  97 CALM      30.05F
LAWRENCEVILLE* FAIR      41  39  93 CALM      30.00F
EMPORIA*       CLEAR     34  34 100 CALM      30.03F
$$

VAZ088>098-200500-
SOUTHEAST VIRGINIA

CITY           SKY/WX    TMP DP  RH WIND       PRES   REMARKS
NORFOLK        CLOUDY    40  36  86 SW6       30.03R
VIRGINIA BEACH CLOUDY    37  34  89 CALM      30.03R
NORFOLK NAVAL  CLOUDY    42  37  82 CALM      30.05R
WEST POINT*    CLOUDY    37  35  91 CALM      30.05R
SALUDA*        FAIR      34  34 100 CALM      30.03S
NEWPORT NEWS   CLOUDY    36  34  92 CALM      30.04R
LANGLEY AFB    CLOUDY    38  37  95 CALM      30.03R
FORT EUSTIS    CLOUDY    40  35  82 S3        30.01R
WILLIAMSBURG*  CLOUDY    43  37  81 CALM      30.05R
HR EXEC AP*    FAIR      36  32  87 CALM      30.03R
FRANKLIN*      CLEAR     42  37  84 CALM      30.04S
US460-WAKEFLD  CLOUDY    39  37  92 CALM      30.03S
$$

VAZ020-022-025-037-045-200500-
WEST CENTRAL AND SOUTHWEST VIRGINIA

CITY           SKY/WX    TMP DP  RH WIND       PRES   REMARKS
STAUNTON*      MOCLDY    39  37  91 CALM      30.00S
WAYNESBORO*    FAIR      44  37  78 CALM      29.98S
HOT SPRINGS VA CLOUDY    43  32  65 S9        29.92F
LYNCHBURG      PTCLDY    42  38  85 CALM      29.99F
DANVILLE       CLOUDY    38  37  97 CALM      29.99R
SOUTH BOSTON*  FAIR      39  38  95 CALM      29.99S
MARTINSVILLE   CLOUDY    39  37  92 CALM      30.01R
ROANOKE        PTCLDY    46  38  73 CALM      29.98S
BLACKSBURG     CLOUDY    45  40  83 CALM      29.99R
DUBLIN*        MOCLDY    47  38  71 CALM      29.98R
MARION*        CLOUDY    50  38  64 E3        29.96F
HILLSVILLE*    CLOUDY    48  38  68 S6        29.95F
RICHLANDS*     FAIR     N/A N/A N/A SE6       29.89R
WISE*          CLOUDY    57  34  41 S13       29.88S
ABINGDON*      CLOUDY    57  37  48 E9        29.89S
$$

MDZ021>025-VAZ099-100-200500-
SOUTHERN MARYLAND AND THE DELMARVA PENINSULA

CITY           SKY/WX    TMP DP  RH WIND       PRES   REMARKS
PATUXENT RIVER PTCLDY    33  32  96 CALM      30.03S
BAY BRIDGE APT CLOUDY    37  34  87 E3        30.05R
LEONARDTOWN    CLEAR     34  32  93 CALM      30.04S
DOVER          CLOUDY    37  37 100 CALM      30.04S
GEORGETOWN     CLOUDY    35  33  92 CALM      30.05S
EASTON         CLOUDY    36  33  90 CALM      30.08S
CAMBRIDGE      CLOUDY    32  32 100 CALM      30.04S
SALISBURY      CLOUDY    33  31  92 CALM      30.05R
OCEAN CITY     CLOUDY    33  33 100 CALM      30.05S FOG
WALLOPS ISLAND CLEAR     36  36 100 CALM      30.05S
ACCOMACK*      CLEAR     34  33  96 CALM      30.03S
$$

NCZ012>017-030>032-200500-
NORTH CENTRAL AND EASTERN NORTH CAROLINA

CITY           SKY/WX    TMP DP  RH WIND       PRES   REMARKS
ROANOKE RAPIDS FAIR      36  36 100 E3        30.00F
RALEIGH        CLOUDY    49  40  71 CALM      30.00R
ELIZABETH CITY PTCLDY    40  38  93 S5        30.05R
AHOSKIE*         N/A     38  37  96 CALM      30.03S
EDENTON*       PTCLDY    44  42  91 CALM      30.05S
CURRITUCK*     PTCLDY    40  40 100 CALM      30.05R FOG
KILL DEVIL HLS NOT AVBL
MANTEO         FOG       39  39 100 CALM      30.05R VSB 1/2
CAPE HATTERAS  CLEAR     45  42  89 E5        30.04S FOG
TARBORO*       NOT AVBL
GOLDSBORO      CLOUDY    45  44  99 E3        29.99R
WASHINGTON     CLEAR     43  41  95 CALM        N/A
GREENVILLE     PTCLDY    43  41  93 E3        30.02F
NEW BERN       CLOUDY    41  39  93 CALM      30.02F
WILMINGTON     MOCLDY    45  44  97 CALM      30.01R
$$

VAZ048-200500-
ELSEWHERE

CITY           SKY/WX    TMP DP  RH WIND       PRES   REMARKS
HARRISBURG PA  CLOUDY    35  33  92 E3        30.03R
BALTIMORE      CLOUDY    37  34  89 CALM      30.03S
ANNAPOLIS      CLOUDY    38  35  89 CALM      30.04R
ANDREWS AFB    CLOUDY    36  33  88 CALM      30.02R
PHILADELPHIA   CLOUDY    38  33  82 CALM      30.05F
HENDERSON NC   CLOUDY    45  38  76 S3        29.99S
GREENSBORO     CLOUDY    49  39  68 S6        29.98R
ROCKY MOUNT    CLOUDY    41  40  96 SW3       30.01S
$$

VAZ100-200500-
MARINE

STATION/POSITION TIME  TEMP    WIND        PRES    WAVE   SWELL
                       AIR SEA DIR/SP/G            HT/PER HT/PER
                 (UTC) (F)     (DEG/KT/KT) (MB)    (FT/S) (FT/S)
CAPE MAY NJ      0348   38 40  100/  1/  1 1017.1R
LEWES DE         0348   40 42  220/  3/  4 1017.6R
OCEAN-CITY-INLET 0348   40 44   20/  2/  2 1017.9R
WACHAPREAGUE VA  0342   37 48  350/  1/  2 1017.0F
THOMAS POINT MD  0400   41 39  110/  6/  6   N/A
GOOSES REEF MD   0350   40     130/  2/  4 1017.7S
COVE POINT MD    0342   42     200/  3/  4 1017.7R
SOLOMONS ISLAND  0342   38 41  290/  1/  2   N/A
BISHOPS HEAD MD  0348   41 45   50/  3/  3 1017.3F
PINEY POINT MD   0348          100/  4/  4   N/A
POTOMAC MD       0350   40     100/  2/  2 1016.0F
CAMBRIDGE MD     0348   38 40   CALM  /  1 1016.6S
LEWISETTA VA     0342   41 44   CALM  /  1 1016.7R
RAPPAHANNOCK LGT 0348          170/  4/  4 1017.6R
STINGRAY PT      0350   42     150/  4/  4 1017.4R
YORK RVR RNG VA  0342   44     130/  6/  7 1016.1R
YORKTOWN VA      0342   42 43  190/  4/  4 1016.6R
JAMESTOWN VA     0350   44     130/  4/  6   N/A
DOMINION TERM VA 0342   44     190/  6/  7 1017.1R
KIPTOPEKE VA     0348      44   80/  3/  4   N/A
CHES BAY BRIDGE  0342   44 44  180/  3/  4 1016.7R
CAPE HENRY VA    0342   44     130/  6/  6   N/A
WILLOUBY STN VA  0342   44     190/  5/  5 1017.9R
S CRANEY ISL VA  0342   45     210/  3/  5 1016.8R
CAPE HENRY BUOY  0342      48                N/A     3/11   2/11
OFFSHORE WE BUOY 0351      49                N/A     5/11   2/11
64NM E OF VA BCH 0350   49 57   40/  6/  8 1016.8R   5/11   5/11
DUCK PIER NC     0342   45 45  180/  4/  5 1016.7R
44100 DUCK FRF   0335      48                N/A     6/10   3/11
44056 DUCK FRF   0330      45                N/A     4/11   2/11
OREGON INLET NC  0342   45 49  200/  3/  4 1017.5R
HATTERAS NC      0342   48 55   70/  4/  5 1016.9R
DIAMOND SHLS NC  0350   55 76   20/  4/  8 1017.3R   4/10   3/10
CAPE LOOKOUT NC  0300   57     100/  2/  3 1016.3F
$$




USA.gov is the U.S. government's official web portal to all federal, state and local government web resources and services.